Helicity
213 194 184 103 65 90 100 75 72 66 70 64 64 72 77 72 93 110 126 118 135 231 192 29 42 110 97
175 161 123 119 105 101 85 87 86 84 81 79 85 88 82 90 109 131 138 128 137 225 426 451 263 175 198
178 172 143 102 94 97 86 82 79 102 99 91 95 100 94 106 114 133 143 142 122 156 252 296 310 380 370
145 141 123 88 90 81 79 90 83 87 87 89 88 116 102 96 103 114 130 132 134 116 132 181 166 125 192
127 120 99 79 79 83 75 72 77 88 75 76 74 82 91 92 76 87 99 116 112 122 106 108 172 188 187
88 88 81 79 85 87 75 79 63 77 78 71 75 78 81 82 89 89 91 100 96 83 81 95 112 111 121
64 72 76 66 78 77 67 68 77 81 77 78 80 75 78 81 87 91 111 115 102 91 89 95 99 105 109
71 78 74 73 63 61 65 83 88 87 88 77 78 74 78 92 117 105 114 109 117 117 120 121 133 126 136
72 71 61 57 57 79 81 88 79 76 85 76 84 83 86 90 102 116 113 131 123 126 138 142 140 143 135
82 78 72 63 70 61 65 73 74 78 75 82 84 87 85 88 98 105 110 121 120 113 122 127 121 109 119
66 61 64 72 68 69 63 69 77 71 67 80 76 86 90 88 92 94 89 84 94 114 126 123 126 106 98
72 67 73 67 56 62 63 62 60 61 68 78 75 77 86 97 97 112 99 96 107 112 106 129 126 99 87
88 86 82 73 88 82 73 63 75 77 62 68 85 78 92 98 105 121 131 118 99 106 126 95 81 89 100
105 108 110 123 121 109 141 91 71 105 72 68 74 95 97 104 118 136 148 135 135 114 76 73 89 84 96
122 128 125 126 153 160 120 100 95 102 92 87 82 84 100 121 132 142 141 141 141 125 107 90 98 107 111
138 154 155 154 149 125 103 111 105 103 100 99 106 117 118 100 91 146 133 117 132 114 109 101 89 113 121
182 200 218 197 148 140 107 126 118 116 110 124 132 142 141 133 127 69 129 136 147 129 112 116 90 79 120
Wind_Speed
38 33 34 35 38 39 35 34 36 35 36 35 36 38 41 42 43 44 46 46 47 46 34 17 5 3 8
40 37 39 37 37 35 31 33 34 37 37 37 37 37 39 41 43 43 43 43 42 40 36 28 20 12 9
39 36 37 35 34 30 29 32 35 38 38 41 40 37 37 40 42 42 41 40 38 36 31 27 24 22 20
36 34 36 34 31 29 31 36 38 39 40 41 40 38 39 41 42 42 40 38 35 32 30 27 25 23 22
31 32 31 29 27 29 34 39 38 39 40 41 40 38 40 41 42 42 38 36 34 32 30 29 29 27 27
23 29 30 27 29 31 36 37 41 38 40 39 39 38 39 39 41 40 36 35 33 32 32 32 31 31 32
28 30 27 28 30 34 36 38 38 40 40 38 39 37 40 36 38 36 36 36 34 33 33 33 34 34 36
28 25 27 26 32 35 34 35 36 37 38 39 39 38 39 35 36 36 37 35 35 35 34 35 37 36 36
27 26 27 29 30 32 35 37 40 37 37 38 38 40 37 34 37 38 35 37 37 37 38 39 39 39 38
27 29 31 32 32 35 31 36 38 40 35 37 37 39 38 35 37 36 36 42 42 41 42 43 43 41 41
26 31 33 33 33 33 33 34 37 39 34 36 37 38 40 42 39 39 41 46 44 43 45 42 45 44 44
31 34 33 32 30 31 34 34 34 36 33 36 40 41 45 46 42 43 45 46 41 46 41 44 50 49 48
29 33 35 32 29 33 35 36 37 37 34 35 39 39 38 40 44 45 48 44 53 43 38 51 53 53 53
37 36 35 32 30 34 40 39 40 41 38 36 37 36 40 39 40 46 44 48 44 47 53 55 53 52 51
36 35 35 36 37 37 38 39 38 41 42 42 42 41 40 41 45 43 45 46 48 51 52 56 54 53 54
32 36 40 40 39 40 41 39 42 44 46 46 47 50 49 46 32 42 45 47 46 46 46 53 58 55 55
30 34 37 39 40 40 41 42 44 44 45 46 48 49 53 55 49 31 44 46 47 48 50 53 61 62 59
Wind_Direction
317 317 318 319 324 332 338 339 338 349 342 341 340 338 335 332 332 332 334 338 341 340 338 342 71 2 332
308 311 313 317 323 327 333 334 338 338 338 336 337 338 336 334 329 331 333 339 342 346 358 15 30 40 37
304 309 314 318 323 327 329 329 330 329 330 324 328 334 338 333 330 330 331 335 342 349 353 360 4 2 2
307 309 311 320 320 323 322 321 321 326 324 322 323 329 330 330 329 328 330 332 336 343 348 350 352 351 344
311 312 316 318 321 323 318 314 318 323 320 320 322 326 326 327 329 331 332 333 334 335 335 335 332 331 329
322 316 319 322 322 321 314 316 312 322 320 319 323 323 324 326 330 336 338 338 338 337 332 328 326 325 323
318 318 324 320 317 315 313 314 317 321 321 318 319 318 320 326 333 338 340 341 344 342 337 333 328 324 321
331 335 329 328 317 314 319 324 325 325 325 314 313 314 317 326 332 335 337 341 343 342 340 336 332 329 327
338 339 332 326 324 327 324 322 318 322 323 319 316 315 319 324 326 330 336 336 338 339 336 333 331 329 327
338 333 324 325 329 328 333 325 322 319 327 320 319 319 318 323 324 329 329 329 329 329 330 327 326 325 322
332 320 319 326 331 336 337 333 325 320 329 325 320 318 316 317 321 322 322 321 325 327 325 326 325 322 319
320 316 321 328 333 337 337 339 337 329 328 324 317 315 311 313 317 321 320 322 325 322 326 324 322 319 317
325 321 320 326 331 332 333 334 331 329 331 326 319 318 318 318 318 319 321 323 319 322 322 318 318 317 317
316 317 321 323 326 327 327 328 325 322 324 324 322 322 319 318 318 317 319 319 323 320 316 315 316 316 317
315 316 316 317 318 323 324 323 320 319 318 321 321 320 319 317 315 315 317 317 316 315 316 314 315 315 316
314 313 312 314 315 318 318 316 314 314 314 317 319 319 319 319 312 315 318 317 318 317 318 315 314 316 316
310 310 309 311 313 315 316 313 311 312 313 314 316 316 314 313 319 317 317 318 318 316 316 314 313 314 316